Time,TemperatureF,DewpointF,PressureIn,WindDirection,WindDirectionDegrees,WindSpeedMPH,WindSpeedGustMPH,Humidity,HourlyPrecipIn,Conditions,Clouds,dailyrainin,SoftwareType,DateUTC
2013-08-17 00:11:00,62.2,61.7,30.15,South,180,0.0,-999.0,98,-99.99,,,0.00,Acu-Link.com,2013-08-17 04:11:00,
2013-08-17 00:26:00,61.5,60.9,30.16,WSW,247,0.0,-999.0,98,-99.99,,,0.00,Acu-Link.com,2013-08-17 04:26:00,
2013-08-17 00:41:00,61.2,60.6,30.16,SW,225,0.0,-999.0,98,-99.99,,,0.00,Acu-Link.com,2013-08-17 04:41:00,
2013-08-17 00:57:00,60.8,60.2,30.16,SW,225,0.0,-999.0,98,-99.99,,,0.00,Acu-Link.com,2013-08-17 04:57:00,
2013-08-17 01:12:00,60.3,59.7,30.16,SSW,202,0.0,-999.0,98,-99.99,,,0.00,Acu-Link.com,2013-08-17 05:12:00,
2013-08-17 01:27:00,59.9,59.3,30.16,SW,225,0.0,-999.0,98,-99.99,,,0.00,Acu-Link.com,2013-08-17 05:27:00,
2013-08-17 01:42:00,59.5,59.0,30.16,West,270,0.0,-999.0,98,-99.99,,,0.00,Acu-Link.com,2013-08-17 05:42:00,
2013-08-17 01:58:00,59.4,58.8,30.16,South,180,0.0,-999.0,98,-99.99,,,0.00,Acu-Link.com,2013-08-17 05:58:00,
2013-08-17 02:13:00,59.0,58.4,30.16,West,270,0.0,-999.0,98,-99.99,,,0.00,Acu-Link.com,2013-08-17 06:13:00,
2013-08-17 02:28:00,58.8,58.3,30.16,South,180,0.0,-999.0,98,-99.99,,,0.00,Acu-Link.com,2013-08-17 06:28:00,
2013-08-17 02:43:00,58.6,58.1,30.16,SW,225,0.0,-999.0,98,-99.99,,,0.00,Acu-Link.com,2013-08-17 06:43:00,
2013-08-17 02:58:00,58.3,57.7,30.16,SSE,157,0.0,-999.0,98,-99.99,,,0.00,Acu-Link.com,2013-08-17 06:58:00,
2013-08-17 03:14:00,58.5,57.9,30.17,SW,225,0.0,-999.0,98,-99.99,,,0.00,Acu-Link.com,2013-08-17 07:14:00,
2013-08-17 03:29:00,58.1,57.5,30.17,WSW,247,0.0,-999.0,98,-99.99,,,0.00,Acu-Link.com,2013-08-17 07:29:00,
2013-08-17 03:44:00,57.9,57.4,30.17,West,270,0.0,-999.0,98,-99.99,,,0.00,Acu-Link.com,2013-08-17 07:44:00,
2013-08-17 03:59:00,57.7,57.2,30.17,SSE,157,0.0,-999.0,98,-99.99,,,0.00,Acu-Link.com,2013-08-17 07:59:00,
2013-08-17 04:15:00,58.1,57.5,30.17,ESE,112,0.0,-999.0,98,-99.99,,,0.00,Acu-Link.com,2013-08-17 08:15:00,
2013-08-17 04:30:00,57.9,57.4,30.17,West,270,0.0,-999.0,98,-99.99,,,0.00,Acu-Link.com,2013-08-17 08:30:00,
2013-08-17 04:47:00,57.9,57.4,30.17,SSW,202,0.0,-999.0,98,-99.99,,,0.00,Acu-Link.com,2013-08-17 08:47:00,
2013-08-17 05:02:00,57.2,56.6,30.17,East,90,0.0,-999.0,98,-99.99,,,0.00,Acu-Link.com,2013-08-17 09:02:00,
2013-08-17 05:17:00,57.0,56.5,30.16,ESE,112,0.0,-999.0,98,-99.99,,,0.00,Acu-Link.com,2013-08-17 09:17:00,
2013-08-17 05:32:00,56.8,56.3,30.17,SW,225,0.0,-999.0,98,-99.99,,,0.00,Acu-Link.com,2013-08-17 09:32:00,
2013-08-17 05:47:00,56.5,55.9,30.17,South,180,0.0,-999.0,98,-99.99,,,0.00,Acu-Link.com,2013-08-17 09:47:00,
2013-08-17 06:02:00,56.5,55.9,30.17,SSW,202,0.0,-999.0,98,-99.99,,,0.00,Acu-Link.com,2013-08-17 10:02:00,
2013-08-17 06:17:00,56.3,55.7,30.18,SSE,157,0.0,-999.0,98,-99.99,,,0.00,Acu-Link.com,2013-08-17 10:17:00,
2013-08-17 06:33:00,56.5,55.9,30.18,SSW,202,0.0,-999.0,98,-99.99,,,0.00,Acu-Link.com,2013-08-17 10:33:00,
2013-08-17 06:48:00,56.7,56.1,30.19,SSW,202,0.0,-999.0,98,-99.99,,,0.00,Acu-Link.com,2013-08-17 10:48:00,
2013-08-17 07:03:00,57.6,57.0,30.19,SW,225,0.0,-999.0,98,-99.99,,,0.00,Acu-Link.com,2013-08-17 11:03:00,
2013-08-17 07:18:00,57.9,57.4,30.19,SW,225,0.0,-999.0,98,-99.99,,,0.00,Acu-Link.com,2013-08-17 11:18:00,
2013-08-17 07:34:00,58.6,58.1,30.19,South,180,0.0,-999.0,98,-99.99,,,0.00,Acu-Link.com,2013-08-17 11:34:00,
2013-08-17 07:49:00,59.5,59.0,30.20,South,180,0.0,-999.0,98,-99.99,,,0.00,Acu-Link.com,2013-08-17 11:49:00,
2013-08-17 08:04:00,61.0,60.4,30.20,SSW,202,0.0,-999.0,98,-99.99,,,0.00,Acu-Link.com,2013-08-17 12:04:00,
2013-08-17 08:19:00,62.6,62.0,30.21,SSW,202,0.0,-999.0,98,-99.99,,,0.00,Acu-Link.com,2013-08-17 12:19:00,
2013-08-17 08:34:00,64.2,63.6,30.21,West,270,0.0,-999.0,98,-99.99,,,0.00,Acu-Link.com,2013-08-17 12:34:00,
2013-08-17 08:50:00,65.8,65.3,30.22,SSE,157,0.0,-999.0,98,-99.99,,,0.00,Acu-Link.com,2013-08-17 12:50:00,
2013-08-17 09:05:00,67.1,66.5,30.21,ESE,112,0.0,-999.0,98,-99.99,,,0.00,Acu-Link.com,2013-08-17 13:05:00,
2013-08-17 09:20:00,69.3,68.7,30.21,SSE,157,0.0,-999.0,98,-99.99,,,0.00,Acu-Link.com,2013-08-17 13:20:00,
2013-08-17 09:35:00,70.0,69.4,30.21,ESE,112,0.0,-999.0,98,-99.99,,,0.00,Acu-Link.com,2013-08-17 13:35:00,
2013-08-17 09:50:00,71.2,70.6,30.20,ESE,112,0.0,-999.0,98,-99.99,,,0.00,Acu-Link.com,2013-08-17 13:50:00,
2013-08-17 10:06:00,72.0,71.4,30.22,NNW,337,0.0,-999.0,98,-99.99,,,0.00,Acu-Link.com,2013-08-17 14:06:00,
2013-08-17 10:21:00,73.9,73.3,30.22,South,180,0.0,-999.0,98,-99.99,,,0.00,Acu-Link.com,2013-08-17 14:21:00,
2013-08-17 10:36:00,76.1,75.5,30.22,SSE,157,0.0,-999.0,98,-99.99,,,0.00,Acu-Link.com,2013-08-17 14:36:00,
2013-08-17 10:51:00,77.0,76.4,30.22,South,180,0.0,-999.0,98,-99.99,,,0.00,Acu-Link.com,2013-08-17 14:51:00,
2013-08-17 11:06:00,76.8,76.2,30.21,SSE,157,0.0,-999.0,98,-99.99,,,0.00,Acu-Link.com,2013-08-17 15:06:00,
2013-08-17 11:22:00,77.7,77.1,30.20,South,180,0.0,-999.0,98,-99.99,,,0.00,Acu-Link.com,2013-08-17 15:22:00,
2013-08-17 11:37:00,78.4,77.8,30.20,ESE,112,0.0,-999.0,98,-99.99,,,0.00,Acu-Link.com,2013-08-17 15:37:00,
2013-08-17 11:52:00,81.3,80.7,30.20,ESE,112,0.0,-999.0,98,-99.99,,,0.00,Acu-Link.com,2013-08-17 15:52:00,
2013-08-17 12:07:00,81.5,80.9,30.20,SE,135,2.7,-999.0,98,-99.99,,,0.00,Acu-Link.com,2013-08-17 16:07:00,
2013-08-17 12:23:00,82.2,81.6,30.20,SSE,157,0.0,-999.0,98,-99.99,,,0.00,Acu-Link.com,2013-08-17 16:23:00,
2013-08-17 12:38:00,83.5,82.9,30.20,ESE,112,0.0,-999.0,98,-99.99,,,0.00,Acu-Link.com,2013-08-17 16:38:00,
2013-08-17 12:53:00,81.5,80.9,30.19,West,270,0.0,-999.0,98,-99.99,,,0.00,Acu-Link.com,2013-08-17 16:53:00,
2013-08-17 13:08:00,81.9,81.2,30.19,ESE,112,0.0,-999.0,98,-99.99,,,0.00,Acu-Link.com,2013-08-17 17:08:00,
2013-08-17 13:23:00,81.9,81.2,30.19,SSW,202,0.0,-999.0,98,-99.99,,,0.00,Acu-Link.com,2013-08-17 17:23:00,
2013-08-17 13:39:00,82.4,81.8,30.19,ESE,112,0.0,-999.0,98,-99.99,,,0.00,Acu-Link.com,2013-08-17 17:39:00,
2013-08-17 13:54:00,80.1,79.4,30.18,West,270,2.7,-999.0,98,-99.99,,,0.00,Acu-Link.com,2013-08-17 17:54:00,
2013-08-17 14:09:00,83.7,83.0,30.18,SSE,157,0.0,-999.0,98,-99.99,,,0.00,Acu-Link.com,2013-08-17 18:09:00,
2013-08-17 14:24:00,80.1,79.4,30.18,West,270,0.0,-999.0,98,-99.99,,,0.00,Acu-Link.com,2013-08-17 18:24:00,
2013-08-17 14:39:00,80.4,79.8,30.18,SSE,157,0.0,-999.0,98,-99.99,,,0.00,Acu-Link.com,2013-08-17 18:39:00,
2013-08-17 14:55:00,82.9,82.3,30.17,South,180,0.0,-999.0,98,-99.99,,,0.00,Acu-Link.com,2013-08-17 18:55:00,
2013-08-17 15:10:00,81.0,80.3,30.17,WNW,292,0.0,-999.0,98,-99.99,,,0.00,Acu-Link.com,2013-08-17 19:10:00,
2013-08-17 15:25:00,83.8,83.2,30.17,SE,135,1.1,-999.0,98,-99.99,,,0.00,Acu-Link.com,2013-08-17 19:25:00,
2013-08-17 15:40:00,83.7,83.0,30.16,ESE,112,0.0,-999.0,98,-99.99,,,0.00,Acu-Link.com,2013-08-17 19:40:00,
2013-08-17 15:55:00,82.6,82.0,30.16,ESE,112,0.0,-999.0,98,-99.99,,,0.00,Acu-Link.com,2013-08-17 19:55:00,
2013-08-17 16:11:00,82.8,82.1,30.16,WSW,247,0.0,-999.0,98,-99.99,,,0.00,Acu-Link.com,2013-08-17 20:11:00,
2013-08-17 16:26:00,82.2,81.6,30.16,SW,225,0.0,-999.0,98,-99.99,,,0.00,Acu-Link.com,2013-08-17 20:26:00,
2013-08-17 16:41:00,81.0,80.3,30.17,SW,225,0.0,-999.0,98,-99.99,,,0.00,Acu-Link.com,2013-08-17 20:41:00,
2013-08-17 16:56:00,80.6,80.0,30.16,NNE,22,0.0,-999.0,98,-99.99,,,0.00,Acu-Link.com,2013-08-17 20:56:00,
2013-08-17 17:11:00,80.8,80.2,30.17,South,180,0.0,-999.0,98,-99.99,,,0.00,Acu-Link.com,2013-08-17 21:11:00,
2013-08-17 17:27:00,80.4,79.8,30.16,ESE,112,0.0,-999.0,98,-99.99,,,0.00,Acu-Link.com,2013-08-17 21:27:00,
2013-08-17 17:42:00,79.9,79.3,30.16,West,270,0.0,-999.0,98,-99.99,,,0.00,Acu-Link.com,2013-08-17 21:42:00,
2013-08-17 17:57:00,79.5,78.9,30.16,West,270,0.0,-999.0,98,-99.99,,,0.00,Acu-Link.com,2013-08-17 21:57:00,
2013-08-17 18:12:00,79.0,78.4,30.17,South,180,0.0,-999.0,98,-99.99,,,0.00,Acu-Link.com,2013-08-17 22:12:00,
2013-08-17 18:27:00,78.4,77.8,30.16,South,180,0.0,-999.0,98,-99.99,,,0.00,Acu-Link.com,2013-08-17 22:27:00,
2013-08-17 18:43:00,77.5,76.9,30.16,ESE,112,0.0,-999.0,98,-99.99,,,0.00,Acu-Link.com,2013-08-17 22:43:00,
2013-08-17 18:58:00,77.0,76.4,30.17,South,180,0.0,-999.0,98,-99.99,,,0.00,Acu-Link.com,2013-08-17 22:58:00,
2013-08-17 19:13:00,76.5,75.9,30.17,SSE,157,0.0,-999.0,98,-99.99,,,0.00,Acu-Link.com,2013-08-17 23:13:00,
2013-08-17 19:28:00,76.1,75.5,30.18,ESE,112,0.0,-999.0,98,-99.99,,,0.00,Acu-Link.com,2013-08-17 23:28:00,
2013-08-17 19:43:00,75.6,75.0,30.18,SSE,157,0.0,-999.0,98,-99.99,,,0.00,Acu-Link.com,2013-08-17 23:43:00,
2013-08-17 19:59:00,74.8,74.2,30.18,SSE,157,0.0,-999.0,98,-99.99,,,0.00,Acu-Link.com,2013-08-17 23:59:00,
2013-08-17 20:14:00,74.3,73.7,30.18,SSE,157,0.0,-999.0,98,-99.99,,,0.00,Acu-Link.com,2013-08-18 00:14:00,
2013-08-17 20:29:00,73.9,73.3,30.18,South,180,0.0,-999.0,98,-99.99,,,0.00,Acu-Link.com,2013-08-18 00:29:00,
2013-08-17 20:44:00,73.2,72.6,30.19,ESE,112,0.0,-999.0,98,-99.99,,,0.00,Acu-Link.com,2013-08-18 00:44:00,
2013-08-17 21:00:00,72.5,71.9,30.20,South,180,0.0,-999.0,98,-99.99,,,0.00,Acu-Link.com,2013-08-18 01:00:00,
2013-08-17 21:15:00,71.8,71.2,30.19,SSW,202,0.0,-999.0,98,-99.99,,,0.00,Acu-Link.com,2013-08-18 01:15:00,
2013-08-17 21:30:00,71.1,70.5,30.20,SSW,202,0.0,-999.0,98,-99.99,,,0.00,Acu-Link.com,2013-08-18 01:30:00,
2013-08-17 21:45:00,70.3,69.7,30.20,SW,225,0.0,-999.0,98,-99.99,,,0.00,Acu-Link.com,2013-08-18 01:45:00,
2013-08-17 22:00:00,69.6,69.0,30.20,South,180,0.0,-999.0,98,-99.99,,,0.00,Acu-Link.com,2013-08-18 02:00:00,
2013-08-17 22:16:00,69.1,68.5,30.21,WSW,247,0.0,-999.0,98,-99.99,,,0.00,Acu-Link.com,2013-08-18 02:16:00,
2013-08-17 22:31:00,68.4,67.8,30.21,West,270,0.0,-999.0,98,-99.99,,,0.00,Acu-Link.com,2013-08-18 02:31:00,
2013-08-17 22:46:00,67.5,66.9,30.21,SW,225,0.0,-999.0,98,-99.99,,,0.00,Acu-Link.com,2013-08-18 02:46:00,
2013-08-17 23:01:00,66.9,66.3,30.21,SSE,157,0.0,-999.0,98,-99.99,,,0.00,Acu-Link.com,2013-08-18 03:01:00,
2013-08-17 23:17:00,66.2,65.6,30.21,SW,225,0.0,-999.0,98,-99.99,,,0.00,Acu-Link.com,2013-08-18 03:17:00,
2013-08-17 23:32:00,65.8,65.3,30.22,SSW,202,0.0,-999.0,98,-99.99,,,0.00,Acu-Link.com,2013-08-18 03:32:00,
2013-08-17 23:47:00,65.5,64.9,30.21,SSW,202,0.0,-999.0,98,-99.99,,,0.00,Acu-Link.com,2013-08-18 03:47:00,